N1YZ Weather Reports


Display with metric or nautical units.
time (UTC)temp
F
wind
direction
speed
MPH
gust
MPH
rain 1hr
in
rain 24hr
in
rain mn
in
humidity
%
barometer
mb
20260906181220 95 24 0.0 0.0 0.00 0.00 0.00 57 1031.2
20260906180720 95 44 0.0 0.0 0.00 0.00 0.00 58 1031.4
20260906180220 95 3 0.0 0.0 0.00 0.00 0.00 60 1031.3
20260906175718 95 8 0.0 0.0 0.00 0.00 0.00 59 1031.6
20260906175214 95 34 0.0 0.0 0.00 0.00 0.00 58 1031.6
20260906174712 94 18 0.0 0.0 0.00 0.00 0.00 60 1031.7
20260906174206 94 55 1.0 1.0 0.00 0.00 0.00 58 1031.7
20260906173702 94 16 0.0 0.0 0.00 0.00 0.00 60 1031.9
20260906173157 93 18 0.0 0.0 0.00 0.00 0.00 60 1031.7
20260906172656 93 24 0.0 0.0 0.00 0.00 0.00 61 1031.9
20260906172152 92 51 0.0 1.0 0.00 0.00 0.00 60 1032.0
20260906171652 92 31 0.0 0.0 0.00 0.00 0.00 62 1032.0
20260906171147 91 25 0.0 0.0 0.00 0.00 0.00 65 1032.1
20260906170643 90 14 0.0 0.0 0.00 0.00 0.00 66 1032.0
20260906170143 90 17 0.0 0.0 0.00 0.00 0.00 66 1032.2
20260906165639 90 10 0.0 0.0 0.00 0.00 0.00 63 1032.3
20260906165134 91 27 0.0 0.0 0.00 0.00 0.00 62 1032.5
20260906164633 90 17 0.0 0.0 0.00 0.00 0.00 62 1032.6
20260906164129 90 8 0.0 0.0 0.00 0.00 0.00 62 1032.5
20260906163625 90 43 0.0 0.0 0.00 0.00 0.00 67 1032.4
20260906163120 89 2 0.0 0.0 0.00 0.00 0.00 68 1032.6
20260906162617 88 13 0.0 0.0 0.00 0.00 0.00 66 1032.5
20260906162113 88 29 0.0 0.0 0.00 0.00 0.00 70 1032.6
20260906161613 87 328 0.0 0.0 0.00 0.00 0.00 69 1032.7
20260906161112 87 1 0.0 0.0 0.00 0.00 0.00 72 1032.6
20260906160610 87 23 0.0 0.0 0.00 0.00 0.00 71 1032.8
20260906160110 87 24 0.0 0.0 0.00 0.00 0.00 70 1033.0
20260906155607 86 5 0.0 0.0 0.00 0.00 0.00 71 1032.9
20260906155103 86 10 0.0 0.0 0.00 0.00 0.00 71 1033.0
20260906154559 87 126 0.0 1.0 0.00 0.00 0.00 70 1033.1
20260906154057 86 20 0.0 0.0 0.00 0.00 0.00 72 1032.9
20260906153556 86 232 0.0 1.0 0.00 0.00 0.00 72 1032.9
20260906153051 86 17 0.0 0.0 0.00 0.00 0.00 74 1033.0
20260906152550 85 348 0.0 0.0 0.00 0.00 0.00 74 1033.1
20260906152045 84 14 0.0 0.0 0.00 0.00 0.00 76 1032.9
20260906151540 83 344 0.0 1.0 0.00 0.00 0.00 82 1033.0
20260906151036 83 17 0.0 0.0 0.00 0.00 0.00 81 1032.9
20260906150531 82 177 0.0 0.0 0.00 0.00 0.00 81 1033.0
20260906150026 82 23 0.0 0.0 0.00 0.00 0.00 80 1033.1
20260906145525 82 30 0.0 0.0 0.00 0.00 0.00 83 1032.9
20260906145020 82 356 1.0 2.0 0.00 0.00 0.00 82 1032.8
20260906144514 81 15 0.0 0.0 0.00 0.00 0.00 85 1032.8
20260906144010 82 0 0.0 0.0 0.00 0.00 0.00 84 1032.7
20260906143504 82 0 0.0 0.0 0.00 0.00 0.00 83 1032.7
20260906143001 82 0 0.0 0.0 0.00 0.00 0.00 82 1032.9
20260906142455 83 0 0.0 0.0 0.00 0.00 0.00 80 1033.0
20260906141949 84 359 0.0 0.0 0.00 0.00 0.00 78 1032.7
20260906141443 83 336 0.0 0.0 0.00 0.00 0.00 79 1033.0
20260906140939 83 1 0.0 0.0 0.00 0.00 0.00 82 1032.6
20260906140433 80 1 0.0 0.0 0.00 0.00 0.00 86 1032.5
20260906135931 79 0 0.0 0.0 0.00 0.00 0.00 87 1032.9
20260906135430 79 0 0.0 0.0 0.00 0.00 0.00 87 1032.9
20260906134926 78 10 0.0 0.0 0.00 0.00 0.00 89 1032.9
20260906134421 78 346 0.0 0.0 0.00 0.00 0.00 90 1033.0
20260906133916 78 2 0.0 0.0 0.00 0.00 0.00 90 1033.2
20260906133412 78 2 0.0 0.0 0.00 0.00 0.00 90 1033.1
20260906132907 78 35 0.0 0.0 0.00 0.00 0.00 91 1032.9
20260906132402 78 12 0.0 0.0 0.00 0.00 0.00 91 1033.2
20260906131858 78 12 0.0 0.0 0.00 0.00 0.00 91 1033.2
20260906131353 77 4 0.0 0.0 0.00 0.00 0.00 91 1033.2
20260906130849 77 337 0.0 0.0 0.00 0.00 0.00 92 1033.1
20260906130348 76 359 0.0 0.0 0.00 0.00 0.00 93 1033.0
20260906125847 76 16 0.0 0.0 0.00 0.00 0.00 93 1032.6
20260906125344 76 356 0.0 0.0 0.00 0.00 0.00 93 1032.6
20260906124839 76 357 0.0 0.0 0.00 0.00 0.00 93 1032.4
20260906124336 76 357 0.0 0.0 0.00 0.00 0.00 93 1032.7
20260906123835 76 357 0.0 0.0 0.00 0.00 0.00 93 1032.7
20260906123329 76 1 0.0 0.0 0.00 0.00 0.00 93 1032.8
20260906122829 76 11 0.0 0.0 0.00 0.00 0.00 93 1032.4
20260906122318 76 28 0.0 0.0 0.00 0.00 0.00 92 1032.6
20260906121816 76 28 0.0 0.0 0.00 0.00 0.00 92 1032.2
20260906121311 76 332 0.0 0.0 0.00 0.00 0.00 92 1032.0
20260906120807 76 8 0.0 0.0 0.00 0.00 0.00 92 1032.2
20260906120303 76 9 0.0 0.0 0.00 0.00 0.00 92 1031.8
20260906115759 76 9 0.0 0.0 0.00 0.00 0.00 92 1032.0
20260906115254 76 9 0.0 0.0 0.00 0.00 0.00 92 1032.1
20260906114752 76 9 0.0 0.0 0.00 0.00 0.00 92 1032.1
20260906114243 76 10 0.0 0.0 0.00 0.00 0.00 92 1032.3
20260906113738 76 10 0.0 0.0 0.00 0.00 0.00 92 1031.9
20260906113237 76 10 0.0 0.0 0.00 0.00 0.00 91 1032.3
20260906112737 76 9 0.0 0.0 0.00 0.00 0.00 91 1032.2
20260906112233 76 10 0.0 0.0 0.00 0.00 0.00 91 1032.2
20260906111733 76 9 0.0 0.0 0.00 0.00 0.00 91 1032.3
20260906111227 77 12 0.0 0.0 0.00 0.00 0.00 90 1032.3
20260906110723 77 11 0.0 0.0 0.00 0.00 0.00 90 1032.4
20260906110219 77 13 0.0 1.0 0.00 0.00 0.00 90 1032.6
20260906105717 77 339 0.0 1.0 0.00 0.00 0.00 90 1032.4
20260906105214 77 24 0.0 0.0 0.00 0.00 0.00 90 1032.2
20260906104713 77 24 0.0 0.0 0.00 0.00 0.00 89 1032.5
20260906104213 77 25 0.0 0.0 0.00 0.00 0.00 89 1032.4
20260906103710 77 8 0.0 0.0 0.00 0.00 0.00 88 1032.5
20260906103205 77 30 0.0 0.0 0.00 0.00 0.00 88 1032.5
20260906102701 77 32 0.0 0.0 0.00 0.00 0.00 87 1032.5
20260906102159 78 42 0.0 0.0 0.00 0.00 0.00 87 1032.5
20260906101654 78 26 0.0 0.0 0.00 0.00 0.00 87 1032.5
20260906101149 78 4 0.0 0.0 0.00 0.00 0.00 87 1032.4
20260906100644 78 7 0.0 0.0 0.00 0.00 0.00 88 1032.4
20260906100139 78 7 0.0 0.0 0.00 0.00 0.00 91 1032.6
20260906095634 78 357 0.0 0.0 0.00 0.00 0.00 93 1032.1
20260906095130 78 359 0.0 0.0 0.00 0.00 0.00 94 1031.9
20260906094628 78 3 0.0 0.0 0.00 0.00 0.00 94 1031.6
20260906094125 78 3 0.0 0.0 0.00 0.00 0.00 94 1031.5
20260906093620 78 24 0.0 0.0 0.00 0.00 0.00 95 1031.8
20260906093114 78 24 0.0 0.0 0.00 0.00 0.00 95 1031.8
20260906092609 78 24 0.0 0.0 0.00 0.00 0.00 95 1031.6
20260906092104 78 24 0.0 0.0 0.00 0.00 0.00 95 1031.6
20260906091600 78 6 0.0 0.0 0.00 0.00 0.00 95 1031.7
20260906091056 78 6 0.0 0.0 0.00 0.00 0.00 95 1031.4
20260906090551 78 6 0.0 0.0 0.00 0.00 0.00 95 1031.4
20260906090046 78 6 0.0 0.0 0.00 0.00 0.00 95 1031.5
20260906085545 78 11 0.0 0.0 0.00 0.00 0.00 95 1031.8
20260906085045 78 7 0.0 0.0 0.00 0.00 0.00 95 1031.7
20260906084539 78 7 0.0 0.0 0.00 0.00 0.00 95 1031.7
20260906084038 78 7 0.0 0.0 0.00 0.00 0.00 95 1031.7
20260906083534 78 15 0.0 0.0 0.00 0.00 0.00 96 1031.8
20260906083034 78 16 0.0 0.0 0.00 0.00 0.00 96 1031.9
20260906082529 78 15 0.0 0.0 0.00 0.00 0.00 96 1032.0
20260906082025 78 15 0.0 0.0 0.00 0.00 0.00 95 1031.8
20260906081520 78 15 0.0 0.0 0.00 0.00 0.00 95 1032.0
20260906081016 78 15 0.0 0.0 0.00 0.00 0.00 95 1032.1
20260906080512 78 15 0.0 0.0 0.00 0.00 0.00 95 1032.2
20260906080008 78 15 0.0 0.0 0.00 0.00 0.00 95 1032.3
20260906075502 78 21 0.0 0.0 0.00 0.00 0.00 95 1032.3
20260906074956 78 21 0.0 0.0 0.00 0.00 0.00 95 1032.0
20260906074451 78 21 0.0 0.0 0.00 0.00 0.00 95 1031.7
20260906073949 78 21 0.0 0.0 0.00 0.00 0.00 95 1031.9
20260906073445 78 24 0.0 0.0 0.00 0.00 0.00 95 1031.9
20260906072941 78 24 0.0 0.0 0.00 0.00 0.00 95 1031.6
20260906072436 78 28 0.0 0.0 0.00 0.00 0.00 94 1031.6
20260906071932 78 29 0.0 0.0 0.00 0.00 0.00 95 1031.6
20260906071428 78 27 0.0 0.0 0.00 0.00 0.00 95 1031.9
20260906070924 78 27 0.0 0.0 0.00 0.00 0.00 94 1031.7
20260906070419 78 27 0.0 0.0 0.00 0.00 0.00 94 1031.8
20260906065915 78 27 0.0 0.0 0.00 0.00 0.00 94 1031.8
20260906065409 78 27 0.0 0.0 0.00 0.00 0.00 94 1031.7
20260906064904 78 28 0.0 0.0 0.00 0.00 0.00 94 1031.9
20260906064400 78 28 0.0 0.0 0.00 0.00 0.00 94 1031.9
20260906063855 78 28 0.0 0.0 0.00 0.00 0.00 94 1032.1
20260906063350 78 32 0.0 0.0 0.00 0.00 0.00 94 1032.3
20260906062845 78 32 0.0 0.0 0.00 0.00 0.00 93 1032.2
20260906062344 78 32 0.0 0.0 0.00 0.00 0.00 93 1032.5
20260906061840 78 32 0.0 0.0 0.00 0.00 0.00 93 1032.5
20260906061337 78 56 0.0 0.0 0.00 0.00 0.00 93 1032.4
20260906060831 78 70 0.0 0.0 0.00 0.00 0.00 92 1032.3
20260906060329 78 14 0.0 0.0 0.00 0.00 0.00 93 1032.4
20260906055824 78 2 0.0 0.0 0.00 0.00 0.00 92 1032.3
20260906055320 78 2 0.0 0.0 0.00 0.00 0.00 92 1032.4
20260906054815 78 2 0.0 0.0 0.00 0.00 0.00 92 1032.4
20260906054310 78 2 0.0 0.0 0.00 0.00 0.00 92 1032.5
20260906053807 78 3 0.0 0.0 0.00 0.00 0.00 92 1032.5
20260906053302 78 3 0.0 0.0 0.00 0.00 0.00 92 1032.6
20260906052757 78 3 0.0 0.0 0.00 0.00 0.00 92 1032.5
20260906052253 78 3 0.0 0.0 0.00 0.00 0.00 92 1032.5
20260906051750 78 3 0.0 0.0 0.00 0.00 0.00 92 1032.4
20260906051249 78 2 0.0 0.0 0.00 0.00 0.00 92 1032.5
20260906050745 78 6 0.0 0.0 0.00 0.00 0.00 92 1032.8
20260906050240 78 5 0.0 0.0 0.00 0.00 0.00 92 1033.0
20260906045739 79 21 0.0 0.0 0.00 0.00 0.00 91 1032.8
20260906045233 79 22 0.0 0.0 0.00 0.00 0.00 91 1032.6
20260906044729 79 13 0.0 0.0 0.00 0.00 0.00 91 1032.6
20260906044224 79 356 0.0 0.0 0.00 0.00 0.00 91 1032.2
20260906043720 79 359 0.0 0.0 0.00 0.00 0.00 91 1032.3
20260906043216 79 359 0.0 0.0 0.00 0.00 0.00 91 1032.4
20260906042715 79 0 0.0 0.0 0.00 0.00 0.00 91 1032.3
20260906042209 79 0 0.0 0.0 0.00 0.00 0.00 91 1032.5
20260906041704 79 0 0.0 0.0 0.00 0.00 0.00 90 1032.4
20260906041159 79 0 0.0 0.0 0.00 0.00 0.00 90 1032.3
20260906040655 79 359 0.0 0.0 0.00 0.00 0.00 90 1032.4
20260906040150 79 349 0.0 0.0 0.00 0.00 0.00 91 1032.3
20260906035645 79 358 0.0 0.0 0.00 0.00 0.00 90 1032.6
20260906035141 79 358 0.0 0.0 0.00 0.00 0.00 90 1032.6
20260906034635 80 358 0.0 0.0 0.00 0.00 0.00 89 1032.6
20260906034130 80 358 0.0 0.0 0.00 0.00 0.00 89 1032.6
20260906033626 80 358 0.0 0.0 0.00 0.00 0.00 88 1032.6
20260906033120 80 358 0.0 0.0 0.00 0.00 0.00 88 1032.6
20260906032617 80 0 0.0 0.0 0.00 0.00 0.00 89 1032.4
20260906032116 80 0 0.0 0.0 0.00 0.00 0.00 89 1032.4
20260906031612 80 0 0.0 0.0 0.00 0.00 0.00 89 1032.4
20260906031108 80 0 0.0 0.0 0.00 0.00 0.00 88 1032.5
20260906030606 80 1 0.0 0.0 0.00 0.00 0.00 88 1032.6
20260906025556 80 359 0.0 0.0 0.00 0.00 0.00 88 1032.3
20260906025054 81 359 0.0 0.0 0.00 0.00 0.00 88 1032.5
20260906024549 81 359 0.0 0.0 0.00 0.00 0.00 87 1032.3
20260906024044 81 359 0.0 0.0 0.00 0.00 0.00 87 1032.4
20260906023540 81 359 0.0 0.0 0.00 0.00 0.00 87 1032.5
20260906023034 81 359 0.0 0.0 0.00 0.00 0.00 87 1032.3
20260906022530 81 359 0.0 0.0 0.00 0.00 0.00 87 1032.3
20260906022025 81 359 0.0 0.0 0.00 0.00 0.00 87 1032.4
20260906021520 81 359 0.0 0.0 0.00 0.00 0.00 87 1032.2
20260906021014 81 359 0.0 0.0 0.00 0.00 0.00 86 1032.4
20260906020514 82 359 0.0 0.0 0.00 0.00 0.00 86 1032.4
20260906020014 82 359 0.0 0.0 0.00 0.00 0.00 86 1032.4
20260906015513 82 359 0.0 0.0 0.00 0.00 0.00 86 1032.3
20260906015013 82 1 0.0 0.0 0.00 0.00 0.00 86 1031.9
20260906014508 82 0 0.0 0.0 0.00 0.00 0.00 86 1031.7
20260906014003 82 1 0.0 0.0 0.00 0.00 0.00 85 1031.6
20260906013458 82 1 0.0 0.0 0.00 0.00 0.00 84 1031.6
20260906012954 82 1 0.0 0.0 0.00 0.00 0.00 84 1031.7
20260906012449 83 1 0.0 0.0 0.00 0.00 0.00 84 1031.4
20260906011948 83 3 0.0 0.0 0.00 0.00 0.00 84 1031.6
20260906011444 83 3 1.0 1.0 0.00 0.00 0.00 84 1031.2
20260906010939 83 358 0.0 0.0 0.00 0.00 0.00 84 1030.7
20260906010434 83 2 0.0 0.0 0.00 0.00 0.00 84 1031.0
20260906005930 83 2 0.0 0.0 0.00 0.00 0.00 84 1030.7
20260906005430 83 3 0.0 0.0 0.00 0.00 0.00 83 1031.0
20260906004928 83 10 0.0 0.0 0.00 0.00 0.00 83 1030.9
20260906004423 84 7 0.0 0.0 0.00 0.00 0.00 82 1031.0
20260906003919 84 0 0.0 0.0 0.00 0.00 0.00 82 1031.0
20260906003414 84 8 0.0 0.0 0.00 0.00 0.00 81 1031.2
20260906002909 84 5 0.0 0.0 0.00 0.00 0.00 81 1030.9
20260906002409 85 7 0.0 0.0 0.00 0.00 0.00 80 1031.0
20260906001904 85 7 0.0 0.0 0.00 0.00 0.00 80 1031.1
20260906001400 85 340 0.0 0.0 0.00 0.00 0.00 79 1031.1
20260906000356 85 338 0.0 0.0 0.00 0.00 0.00 79 1031.0
20260905235849 85 12 0.0 0.0 0.00 0.00 0.00 79 1031.2
20260905235343 86 6 0.0 0.0 0.00 0.00 0.00 79 1031.0
20260905234838 86 10 1.0 2.0 0.00 0.00 0.00 78 1031.2
20260905234334 86 347 1.0 1.0 0.00 0.00 0.00 78 1031.0
20260905233829 86 15 0.0 1.0 0.00 0.00 0.00 79 1031.0
20260905233324 87 349 0.0 1.0 0.00 0.00 0.00 78 1031.1
20260905232823 87 356 2.0 3.0 0.00 0.00 0.00 77 1031.1
20260905232319 87 9 0.0 0.0 0.00 0.00 0.00 78 1031.1
20260905231815 87 13 0.0 0.0 0.00 0.00 0.00 77 1030.9
20260905231310 87 19 0.0 0.0 0.00 0.00 0.00 77 1030.9
20260905230806 87 14 0.0 0.0 0.00 0.00 0.00 77 1030.9
20260905230304 88 20 0.0 0.0 0.00 0.00 0.00 77 1031.0
20260905225803 88 337 0.0 0.0 0.00 0.00 0.00 76 1030.9
20260905225259 89 1 1.0 1.0 0.00 0.00 0.00 75 1031.0
20260905224758 89 21 0.0 1.0 0.00 0.00 0.00 74 1031.1
20260905224254 89 35 1.0 2.0 0.00 0.00 0.00 73 1030.9
20260905223749 90 56 1.0 2.0 0.00 0.00 0.00 72 1030.9
20260905223246 90 2 0.0 0.0 0.00 0.00 0.00 71 1030.5
20260905222741 90 31 0.0 0.0 0.00 0.00 0.00 71 1030.8
20260905222240 90 357 1.0 2.0 0.00 0.00 0.00 71 1030.8
20260905221736 90 7 0.0 1.0 0.00 0.00 0.00 71 1030.6
20260905221233 91 25 0.0 0.0 0.00 0.00 0.00 70 1030.8
20260905220729 91 11 0.0 0.0 0.00 0.00 0.00 71 1030.6
20260905220225 91 7 0.0 1.0 0.00 0.00 0.00 70 1030.5
20260905215724 91 3 0.0 0.0 0.00 0.00 0.00 69 1030.5
20260905215220 91 355 1.0 1.0 0.00 0.00 0.00 68 1030.3
20260905214715 92 21 0.0 0.0 0.00 0.00 0.00 67 1030.3
20260905214211 92 12 0.0 0.0 0.00 0.00 0.00 65 1030.3
20260905213706 93 359 0.0 0.0 0.00 0.00 0.00 63 1030.5
20260905213202 93 8 0.0 0.0 0.00 0.00 0.00 61 1030.3
20260905212657 93 2 0.0 0.0 0.00 0.00 0.00 60 1030.5
20260905212156 93 25 0.0 0.0 0.00 0.00 0.00 61 1030.4
20260905211650 94 26 0.0 0.0 0.00 0.00 0.00 59 1030.6
20260905211146 94 3 0.0 0.0 0.00 0.00 0.00 57 1030.5
20260905210642 94 12 0.0 0.0 0.00 0.00 0.00 61 1030.7
20260905210137 95 356 1.0 1.0 0.00 0.00 0.00 59 1030.6
20260905205636 95 2 0.0 0.0 0.00 0.00 0.00 59 1030.8
20260905205131 95 337 3.0 3.0 0.00 0.00 0.00 60 1030.8
20260905204629 95 9 0.0 0.0 0.00 0.00 0.00 59 1030.6
20260905204125 94 83 1.0 1.0 0.00 0.00 0.00 59 1030.5
20260905203625 94 22 0.0 0.0 0.00 0.00 0.00 61 1030.7
20260905203121 94 3 1.0 1.0 0.00 0.00 0.00 62 1030.8
20260905202616 93 7 0.0 0.0 0.00 0.00 0.00 62 1030.7
20260905202111 94 3 0.0 0.0 0.00 0.00 0.00 62 1031.1
20260905201607 94 349 0.0 0.0 0.00 0.00 0.00 59 1031.1
20260905201106 94 353 0.0 0.0 0.00 0.00 0.00 60 1031.1
20260905200602 94 19 0.0 0.0 0.00 0.00 0.00 61 1031.1
20260905200056 94 6 1.0 2.0 0.00 0.00 0.00 62 1031.0
20260905195550 95 7 1.0 2.0 0.00 0.00 0.00 59 1030.8
20260905195046 96 221 0.0 1.0 0.00 0.00 0.00 54 1031.0
20260905194545 96 352 0.0 0.0 0.00 0.00 0.00 50 1031.1
20260905194045 95 57 0.0 0.0 0.00 0.00 0.00 49 1031.0
20260905193540 96 0 0.0 0.0 0.00 0.00 0.00 54 1031.0
20260905193035 96 27 0.0 0.0 0.00 0.00 0.00 51 1031.2
20260905192530 96 139 1.0 1.0 0.00 0.00 0.00 50 1031.5
20260905192027 96 190 2.0 2.0 0.00 0.00 0.00 50 1031.6
20260905191524 96 50 0.0 1.0 0.00 0.00 0.00 50 1031.7
20260905191024 95 33 1.0 1.0 0.00 0.00 0.00 52 1031.8
20260905190522 94 351 0.0 0.0 0.00 0.00 0.00 55 1031.7
20260905190016 94 26 0.0 0.0 0.00 0.00 0.00 57 1031.7
20260905185510 95 338 2.0 2.0 0.00 0.00 0.00 55 1031.6
20260905185009 96 120 1.0 1.0 0.00 0.00 0.00 51 1031.9
20260905184504 96 18 0.0 0.0 0.00 0.00 0.00 52 1032.1
20260905184003 96 6 1.0 1.0 0.00 0.00 0.00 54 1032.1
20260905183503 97 295 0.0 0.0 0.00 0.00 0.00 55 1032.4
20260905182957 96 192 1.0 1.0 0.00 0.00 0.00 51 1032.2
20260905182457 95 61 1.0 1.0 0.00 0.00 0.00 54 1032.4
20260905181952 96 161 1.0 1.0 0.00 0.00 0.00 53 1032.5